Theta_e
313 316 318 320 323 324 322 319 314 315 315 307 309 312 313 318 318 318 320 322 327 336 337 335 336 334 339 341 343 345 345 349 346 337 338 352 352 350 353 351 352 351 350 348 347 341 337 335 331 331 330 331 333 335 339 341 342 341 341 340 339 337 334 330 331 333 335 338 338 338 337 338 340 341 338 339 341 341 342 342 342 343 343 343 343 343 344 344 343 343 343 342 342 342 342 341 342
317 319 320 322 323 322 321 318 312 312 311 306 310 313 315 320 318 318 321 324 335 341 339 338 339 341 343 341 343 343 346 347 347 348 348 350 349 351 351 351 352 350 350 348 346 344 342 338 331 331 329 329 330 332 337 340 340 339 339 338 337 337 336 335 335 335 336 338 338 338 337 337 338 340 339 340 341 341 342 343 343 343 343 343 343 343 343 343 342 342 342 341 341 339 338 337 338
319 321 322 322 322 319 320 318 311 308 308 306 310 316 317 318 319 322 323 328 338 340 340 340 340 344 344 342 345 345 347 347 347 347 347 349 349 351 351 352 352 350 350 347 346 344 344 339 331 330 329 329 329 329 333 336 337 335 335 334 335 337 337 337 337 336 337 338 338 338 337 337 336 337 339 340 340 340 342 342 342 342 342 342 342 342 342 342 341 341 341 341 340 338 335 332 332
320 322 323 322 321 317 317 316 313 309 307 306 308 316 317 317 321 321 323 329 335 337 340 341 340 345 347 346 347 348 349 347 347 346 347 349 350 351 352 351 350 351 349 347 346 344 345 339 331 331 329 328 328 327 328 330 332 332 333 334 336 337 337 338 337 337 337 337 338 337 337 337 336 336 339 341 340 340 341 342 342 342 342 342 342 342 341 340 340 340 340 340 340 338 334 332 330
320 322 322 322 320 318 318 316 314 310 308 308 309 315 318 319 321 320 321 325 329 335 338 339 341 344 346 348 348 350 350 347 348 347 349 349 350 351 351 351 351 350 348 347 345 345 345 338 332 331 329 328 327 327 326 328 330 333 336 336 336 336 337 337 336 338 338 337 337 337 337 336 336 336 338 339 339 340 340 340 341 342 342 342 341 341 339 339 339 338 337 336 336 337 335 333 332
320 321 320 320 320 319 317 313 311 310 312 314 313 317 320 319 321 320 320 324 327 332 337 338 340 343 345 348 348 348 349 349 348 348 349 350 350 351 351 351 350 350 348 347 345 346 344 337 332 331 329 327 326 326 327 330 333 335 337 338 337 336 336 336 335 338 338 337 337 337 337 336 336 336 337 338 339 339 339 339 340 341 341 340 340 339 336 334 335 333 333 332 332 334 334 332 332
320 320 318 317 317 318 315 312 311 311 315 316 316 319 320 320 321 320 320 325 328 329 335 337 338 342 344 347 348 347 348 349 349 348 349 350 350 352 351 350 350 350 348 348 346 346 343 335 331 331 328 326 325 325 328 332 336 337 337 338 338 336 337 336 336 337 337 336 335 335 335 335 336 336 337 338 339 339 338 339 339 340 340 339 339 337 332 331 331 331 331 330 329 330 331 331 332
320 320 318 316 317 316 315 314 313 315 316 316 317 319 320 321 321 320 320 322 329 332 334 337 340 341 343 347 349 348 348 349 349 349 349 349 351 351 351 350 350 349 348 347 346 346 341 334 331 331 328 326 325 325 329 333 335 337 337 338 338 337 338 338 338 338 338 337 336 336 334 333 335 336 337 338 339 339 338 339 339 339 338 338 337 333 330 330 331 330 329 329 328 329 329 330 331
318 318 317 315 317 315 313 313 314 316 317 316 317 319 320 321 320 321 320 318 328 337 337 339 339 339 343 348 349 348 349 350 350 350 350 349 351 351 351 350 349 349 348 347 346 345 342 335 331 331 327 326 325 326 328 330 333 336 337 338 338 338 338 338 338 337 337 338 338 338 338 336 336 335 336 337 338 338 338 338 338 339 338 337 335 330 329 331 331 330 329 329 329 330 330 330 330
317 316 317 315 315 311 310 311 313 315 316 317 318 320 319 319 319 320 320 319 329 340 341 340 337 339 344 348 349 347 349 350 350 350 350 350 350 350 350 349 349 349 347 347 347 345 343 337 333 332 329 326 325 327 328 329 334 336 336 337 337 338 338 337 337 337 337 339 339 339 339 339 339 337 336 336 337 338 337 338 338 338 338 336 332 329 329 330 331 331 329 329 329 330 330 330 329
316 314 316 314 312 308 308 310 312 315 316 318 318 319 318 317 319 319 321 327 335 341 341 340 339 341 345 347 348 348 349 350 351 351 351 350 349 349 349 349 348 348 347 348 348 345 343 339 337 335 332 329 327 328 330 331 333 335 336 335 336 338 337 336 337 337 337 339 340 339 339 340 339 338 336 333 335 337 336 337 338 337 337 334 331 329 329 330 332 332 330 330 330 330 330 329 328
316 315 314 311 311 310 310 310 311 316 317 319 318 318 317 316 319 320 325 333 338 341 340 341 341 342 346 348 347 348 349 350 351 351 351 351 349 349 349 349 348 348 347 348 348 346 344 341 339 337 334 331 330 331 331 331 332 333 336 335 335 338 337 335 336 337 338 339 339 338 338 338 337 337 335 330 330 333 334 335 337 338 336 333 330 329 328 330 332 332 331 330 330 330 329 329 327
315 316 314 311 313 313 312 311 313 316 318 319 317 318 318 316 321 325 330 335 337 339 340 341 342 344 348 349 347 347 349 350 351 351 351 351 350 350 349 349 349 348 348 348 348 346 344 343 341 340 336 333 333 333 332 332 332 333 335 336 336 337 337 336 335 335 337 339 338 336 336 336 337 337 335 331 329 328 329 332 335 337 335 331 330 329 328 330 332 332 332 331 330 330 329 328 326
315 316 314 313 314 314 312 311 313 314 316 317 317 321 323 322 329 332 332 335 339 341 342 342 342 345 349 349 347 346 347 349 350 350 351 351 349 349 349 349 348 348 348 347 347 346 345 344 343 343 338 335 336 335 335 334 332 334 335 334 335 336 337 337 336 334 336 339 337 335 334 335 337 336 334 333 332 330 329 330 333 335 335 330 329 329 328 329 331 332 332 331 330 330 329 328 325
316 316 315 315 313 312 312 312 315 314 314 317 318 325 330 332 337 338 335 339 345 344 342 344 344 344 345 345 347 346 347 349 349 349 350 350 349 348 349 349 348 348 348 347 347 346 345 345 345 344 340 339 339 338 339 336 332 333 333 332 332 334 336 337 337 335 335 337 336 333 334 336 336 333 333 333 333 332 331 332 332 334 334 329 327 329 327 328 331 332 332 331 330 330 329 328 323
317 316 315 315 312 310 312 315 317 315 315 317 319 326 333 337 339 341 339 341 345 345 344 345 346 345 344 342 346 347 347 348 348 348 348 348 348 347 347 349 348 347 346 346 346 346 345 345 346 345 343 342 342 341 340 339 334 331 332 332 331 333 335 336 337 337 336 335 333 332 335 337 335 333 333 334 333 332 332 333 332 332 333 327 325 327 327 328 331 332 332 331 330 330 329 327 323
316 316 315 313 311 311 312 316 317 314 316 318 319 324 331 338 341 343 342 342 344 345 346 346 346 348 346 344 347 348 348 348 348 347 347 347 347 346 345 347 348 346 345 346 345 346 345 344 345 345 345 344 344 343 341 340 335 332 333 333 333 333 334 335 337 337 335 334 333 332 336 340 338 335 336 335 334 333 332 333 332 331 330 325 325 326 326 329 331 332 332 331 330 330 329 327 323
315 315 315 312 312 312 314 318 316 315 317 316 319 322 327 337 341 343 341 343 344 345 347 346 347 348 347 348 349 349 347 348 348 347 346 346 346 345 344 345 346 346 346 346 345 345 346 344 345 345 345 345 345 344 343 342 336 335 337 335 335 335 333 334 335 336 335 334 334 334 339 342 341 339 339 337 336 335 332 332 332 330 328 324 325 327 327 330 332 332 332 330 330 329 330 329 326
315 316 314 313 314 314 316 318 316 316 317 316 319 319 325 335 339 340 339 341 343 342 346 349 349 348 347 349 350 348 347 348 348 346 346 345 344 344 344 343 344 344 345 345 346 346 345 344 344 345 345 346 346 344 344 343 340 340 340 338 337 337 335 336 336 337 337 336 337 338 341 342 343 342 341 339 337 336 333 331 330 326 325 325 325 327 329 331 332 332 332 330 330 331 333 334 331
316 316 313 314 315 315 316 317 317 316 316 316 317 317 324 334 334 335 335 336 337 335 341 346 348 349 347 347 349 348 347 348 348 347 346 344 343 343 343 343 343 343 343 344 345 345 344 345 346 345 346 346 345 345 344 344 342 342 342 340 339 338 338 340 339 339 339 339 340 341 342 341 342 343 341 340 338 336 333 331 329 324 324 324 325 329 330 331 332 332 331 330 331 334 337 336 335
316 315 313 316 315 315 316 316 317 316 316 315 316 316 319 326 326 329 332 331 331 331 337 339 341 347 347 346 347 347 348 348 348 347 346 344 344 343 343 343 342 342 343 343 343 343 343 345 346 346 346 345 345 345 344 344 343 343 343 341 341 340 340 341 340 340 340 340 341 341 341 341 342 342 340 340 339 338 336 335 333 330 330 327 328 332 332 332 334 334 332 331 334 336 337 337 335
316 314 314 316 314 314 317 317 317 315 315 314 315 315 316 318 318 326 331 326 326 328 334 337 337 343 346 346 347 346 348 348 348 347 346 345 344 344 343 343 342 342 342 342 342 342 342 343 344 345 345 345 345 345 344 344 344 343 343 342 341 341 341 341 341 341 341 342 342 341 341 342 342 341 340 341 340 339 338 337 336 335 335 331 330 333 333 333 335 336 335 334 336 336 337 337 335
315 315 315 316 315 315 317 317 316 315 315 314 315 315 315 316 317 326 327 323 324 325 331 337 339 344 346 348 347 345 346 348 348 347 346 346 345 344 343 342 342 342 342 342 342 343 343 343 343 344 344 344 344 345 344 343 343 343 343 342 341 340 340 341 341 342 342 342 342 341 342 341 341 341 341 341 341 339 339 338 337 336 335 333 332 332 333 334 335 335 336 336 336 336 336 336 334
314 315 315 315 315 315 316 316 316 315 315 314 315 314 315 316 317 324 324 326 332 329 332 340 343 347 347 346 346 346 346 347 347 346 346 346 346 344 343 343 342 341 342 341 342 343 342 344 344 343 343 344 344 344 344 343 343 343 342 342 341 340 340 341 341 342 342 342 342 342 341 340 340 340 340 340 340 340 339 339 338 336 335 334 332 332 332 333 335 336 336 336 336 336 336 336 334
313 314 315 314 315 315 315 316 316 315 315 314 314 314 315 315 316 320 322 331 338 334 336 343 344 345 345 345 347 347 346 346 347 347 347 347 346 344 343 343 342 341 341 341 342 342 342 343 343 342 343 344 345 344 343 343 342 342 342 342 341 340 340 341 342 342 342 342 341 341 340 340 340 340 340 340 340 340 339 339 338 336 335 334 334 332 332 332 334 336 336 336 336 336 335 335 334
313 313 315 315 315 315 315 316 316 315 315 314 314 314 315 315 314 317 323 334 340 339 341 344 344 344 344 345 347 347 345 345 347 347 347 347 346 344 343 343 343 341 341 341 341 342 342 342 343 343 343 344 344 343 342 343 342 342 343 342 341 341 341 342 342 342 342 341 341 341 340 340 340 340 340 340 340 340 340 339 338 337 335 334 334 333 332 332 333 335 335 335 335 335 335 334 334
315 314 314 315 314 315 315 315 316 315 315 314 314 314 315 314 314 318 327 336 342 342 344 344 344 344 344 344 346 348 346 344 346 347 348 347 345 344 344 344 343 342 341 341 341 341 342 342 343 343 343 344 343 343 342 343 343 343 343 342 342 342 341 342 342 341 341 340 341 341 341 340 339 340 340 339 339 340 340 339 338 337 335 334 334 334 333 332 333 334 334 334 335 334 335 334 333
315 314 314 315 314 315 314 314 316 315 315 314 314 315 315 314 315 323 335 341 343 343 344 344 344 344 344 344 345 346 345 344 345 346 347 348 345 343 343 345 344 342 342 341 340 340 341 341 342 342 343 343 342 343 343 343 343 342 342 342 342 341 341 341 341 341 341 340 341 341 341 340 340 340 340 339 338 339 339 339 338 337 335 334 334 334 333 332 333 333 334 335 334 334 334 333 333
314 315 314 314 314 314 313 315 315 314 315 314 315 314 314 316 314 321 336 342 343 344 343 343 344 344 344 344 344 345 344 344 345 345 347 347 346 344 344 345 344 343 341 340 340 339 339 341 341 341 341 341 341 342 342 341 340 340 341 340 340 340 340 341 341 341 341 341 341 341 341 340 340 340 340 339 338 339 339 338 338 338 337 335 333 334 334 333 332 333 334 335 334 334 334 332 332
313 313 314 314 312 313 314 315 314 314 314 314 315 311 312 320 317 318 331 340 342 343 343 343 345 345 343 345 344 343 343 344 345 345 346 346 345 344 344 343 342 341 341 339 339 338 339 339 339 339 339 340 340 340 340 339 339 339 339 339 339 339 340 340 341 341 341 341 341 341 340 340 340 339 339 339 338 338 338 338 338 338 338 337 335 334 334 333 332 333 333 334 334 334 333 332 332
313 312 313 314 310 311 314 315 314 314 313 314 314 310 314 325 324 320 328 338 341 339 341 342 344 345 343 345 344 341 342 344 344 344 345 345 344 343 342 342 340 339 340 340 339 338 338 338 339 338 338 338 339 339 339 339 339 338 338 338 338 339 340 340 340 340 341 341 340 340 340 340 339 339 339 339 339 338 337 338 338 338 338 338 336 334 334 334 333 333 332 333 334 334 333 332 331
313 311 309 312 310 310 314 314 314 314 314 315 314 311 316 326 327 325 327 336 339 336 339 341 343 345 344 344 342 340 341 343 343 342 343 343 344 343 341 341 339 338 338 339 338 337 338 338 338 338 337 338 338 339 339 338 338 337 337 337 337 338 339 339 339 339 340 340 339 339 340 340 339 338 338 338 339 338 337 338 338 338 338 337 337 336 335 334 333 333 332 332 334 334 334 333 333
313 311 308 310 309 310 313 313 314 315 314 315 313 313 319 325 328 328 328 334 338 336 338 342 342 343 343 342 340 340 341 342 342 342 342 341 342 342 341 340 338 337 338 338 338 337 337 337 337 338 337 337 337 338 338 338 338 337 338 337 337 338 338 339 338 337 338 338 338 338 339 339 338 338 338 338 339 338 338 338 338 338 338 337 337 337 336 334 334 334 334 333 334 335 335 335 335
311 311 311 311 310 310 310 312 314 314 315 315 316 320 325 327 328 329 329 332 337 337 337 341 342 342 342 340 339 340 340 341 342 342 341 341 341 341 340 339 337 336 337 337 337 336 336 336 337 336 336 337 337 337 337 337 337 337 337 338 338 338 338 339 338 337 337 338 337 337 338 339 338 338 338 338 338 338 338 338 338 337 337 337 337 337 336 335 335 335 335 335 335 336 335 335 336
310 310 311 311 310 311 310 312 314 314 315 316 319 324 327 329 329 330 331 332 337 338 338 340 341 341 342 340 340 340 340 341 342 341 340 340 340 340 340 338 336 336 336 336 336 336 336 336 337 335 335 336 336 336 336 336 337 336 337 337 337 337 337 338 337 335 336 337 335 334 335 336 336 338 337 336 336 336 337 337 337 336 336 336 336 336 335 335 336 336 336 336 336 336 334 335 335
312 311 311 310 309 310 312 313 314 315 317 319 322 325 328 330 330 331 332 333 336 337 338 339 339 341 341 342 342 341 341 341 341 340 340 340 340 340 339 337 335 335 336 335 335 336 336 336 336 336 336 336 336 337 337 337 337 337 337 338 338 338 337 336 336 335 336 336 335 333 334 334 334 336 335 335 335 335 335 336 336 335 335 335 335 335 335 335 336 337 336 335 335 335 335 335 335
314 312 311 310 309 310 313 315 316 319 323 325 326 327 329 330 330 331 331 332 333 333 336 337 338 340 340 341 342 343 342 341 341 340 340 340 339 339 338 337 336 336 336 336 336 337 337 336 336 336 336 336 337 337 338 338 339 339 339 339 339 339 338 337 337 337 337 337 337 335 334 334 334 335 334 335 336 335 335 335 335 335 335 335 335 334 334 334 334 335 335 333 333 335 335 335 334
313 312 311 310 310 310 313 315 316 318 324 326 326 327 330 330 330 330 330 330 331 332 334 335 337 338 339 340 342 342 342 340 340 340 339 339 338 339 338 337 337 337 337 337 337 337 337 336 336 336 335 336 336 337 337 338 338 338 339 339 339 339 338 338 338 338 337 337 337 336 335 335 335 335 334 335 336 336 335 335 335 336 335 335 335 333 333 333 332 333 333 332 332 334 335 334 334
313 312 311 309 310 312 313 314 315 316 323 325 324 327 329 330 330 329 329 329 330 331 333 333 335 336 337 337 338 339 339 339 338 338 339 339 338 338 338 337 337 337 337 337 337 337 337 336 336 336 336 335 336 336 336 336 337 337 338 338 338 338 338 337 337 338 337 336 336 336 336 335 334 334 334 335 335 335 336 335 335 335 335 335 335 334 333 333 332 331 331 331 332 333 334 333 333
313 312 310 309 311 312 310 313 316 318 323 325 325 327 329 330 329 329 328 328 328 329 330 330 331 332 332 331 331 332 332 332 332 332 334 335 335 335 335 335 336 335 335 336 336 337 337 337 336 336 336 335 335 335 335 336 336 336 337 338 337 337 337 337 337 337 337 336 335 335 335 335 334 334 334 335 334 335 334 335 335 334 334 334 334 333 333 333 332 331 330 331 332 332 333 333 333
313 313 311 310 312 312 312 315 318 321 324 326 324 323 326 330 329 330 328 327 327 326 327 329 328 328 328 327 326 326 326 326 325 325 326 328 329 329 329 330 332 332 333 332 333 334 334 335 335 335 335 336 336 335 335 336 336 336 336 337 337 337 337 337 337 337 337 336 335 335 335 335 335 335 335 335 334 334 334 334 334 334 334 333 333 332 332 332 332 331 330 330 331 331 331 331 332
312 314 313 312 313 313 316 318 318 319 321 325 320 316 322 328 328 329 328 328 328 326 327 328 326 325 325 325 324 323 323 322 322 322 322 323 324 324 324 325 327 329 330 330 331 331 332 332 333 333 334 335 336 336 337 337 337 337 337 336 337 337 337 337 337 336 337 336 335 335 335 335 335 335 334 334 333 333 334 334 334 334 333 333 332 331 331 331 331 331 330 330 330 330 329 330 331
311 313 314 314 314 314 316 317 315 314 316 323 321 315 321 328 327 328 329 328 328 327 327 326 325 324 323 323 322 321 320 320 319 319 320 321 321 321 322 322 323 324 325 327 328 329 330 331 331 332 333 333 335 335 336 336 336 337 337 337 337 337 337 338 337 336 336 336 335 335 335 335 334 334 334 334 334 333 334 334 334 333 333 333 332 331 331 330 331 331 331 330 330 329 329 329 330
311 314 314 313 314 314 315 314 313 313 316 321 321 315 318 325 326 328 329 327 328 328 327 325 324 323 322 321 320 319 318 318 317 317 318 319 318 319 320 320 320 321 322 323 324 326 327 328 329 331 332 332 333 333 334 335 335 336 336 336 336 337 337 337 336 335 335 335 335 335 335 334 334 334 334 334 334 333 333 333 333 333 332 332 331 331 331 330 330 331 331 330 329 330 330 329 329
313 314 314 313 313 314 314 313 311 313 314 314 316 314 314 321 326 327 328 327 328 329 327 324 323 321 320 319 318 318 317 316 316 316 316 317 317 317 317 318 318 319 320 320 321 323 324 324 326 328 330 330 331 332 333 334 335 335 335 335 336 336 336 335 335 335 335 334 335 334 334 334 334 334 334 334 334 333 333 333 332 332 331 331 331 331 331 330 329 330 330 330 330 330 330 329 329
313 313 314 313 313 314 314 313 311 312 313 310 312 313 312 320 327 326 327 327 329 329 326 323 322 320 319 318 317 316 316 315 316 316 317 316 316 316 317 317 318 318 318 319 320 321 322 322 323 325 326 327 329 330 331 332 333 334 334 335 335 335 335 335 335 335 335 334 334 334 334 334 334 333 333 334 334 333 332 332 332 332 331 331 331 331 331 330 329 330 330 330 330 330 330 330 329
313 313 313 313 313 313 313 313 311 311 312 311 312 314 313 319 325 325 327 328 329 329 326 323 322 319 318 318 316 315 315 315 315 316 317 316 316 316 316 317 317 317 318 318 319 320 321 321 322 323 324 324 326 327 329 330 331 332 333 334 334 334 334 334 334 335 335 335 334 333 333 333 333 333 333 333 333 333 332 332 332 332 331 330 331 332 332 331 331 331 331 330 330 330 330 330 330
313 312 312 311 311 312 311 311 311 311 312 312 314 315 313 316 323 327 328 327 326 326 325 323 322 319 318 317 316 315 315 315 314 314 315 316 316 316 316 316 316 316 317 317 318 318 319 320 321 322 323 323 324 325 326 328 330 331 331 333 334 334 334 334 334 335 335 335 334 333 333 333 333 333 333 333 333 333 332 331 331 331 331 331 331 331 331 331 331 332 332 331 331 331 330 331 331
312 311 311 310 310 311 311 310 310 311 312 314 315 314 315 322 328 329 327 325 323 322 322 321 320 319 317 316 316 315 314 314 313 313 314 315 315 315 315 315 315 316 316 316 317 317 318 319 319 321 321 322 323 323 325 326 328 329 330 331 332 333 333 333 333 334 334 333 333 333 333 332 333 334 333 333 333 333 332 331 331 331 331 331 331 331 331 331 331 332 332 331 331 331 331 331 332
311 310 309 309 310 312 313 311 310 311 314 317 317 315 319 329 331 327 326 324 321 320 320 319 319 318 317 316 315 315 314 313 313 312 313 314 314 314 314 314 314 315 315 315 315 316 316 318 318 319 320 320 321 322 323 324 326 327 328 329 329 330 331 331 332 332 333 332 331 332 332 333 333 333 333 333 333 333 332 331 332 332 331 331 331 332 332 331 331 331 331 331 330 330 331 331 332
311 311 311 309 310 311 312 311 309 311 315 317 318 318 323 331 330 325 324 322 320 320 319 319 318 317 317 315 314 314 314 313 313 312 312 313 313 313 313 313 314 314 314 315 315 314 315 316 317 318 318 319 319 320 321 323 324 325 326 328 329 329 329 329 330 330 330 331 331 331 332 332 333 333 333 333 333 333 332 332 332 332 332 332 332 333 332 331 331 331 332 332 330 330 330 330 331
312 312 310 309 310 310 311 314 314 312 315 319 322 326 328 329 327 324 322 321 320 320 319 318 318 317 316 315 314 314 313 312 312 311 312 313 313 313 313 313 313 313 313 314 314 313 314 314 315 316 317 318 318 319 319 321 322 323 325 327 327 328 329 329 329 330 329 330 330 330 331 332 332 332 332 332 333 333 333 332 332 333 333 333 333 332 331 331 331 331 332 331 331 330 330 330 330
311 310 309 311 312 313 312 315 318 313 314 323 327 329 329 327 326 324 322 322 321 320 319 318 317 316 316 315 314 313 312 311 311 311 312 312 312 312 312 312 312 312 312 313 313 313 313 313 314 314 315 316 317 318 318 319 320 320 322 324 325 327 328 329 330 330 330 330 330 330 330 331 331 332 332 332 332 333 333 333 332 332 333 333 333 331 330 331 331 331 331 331 331 331 331 331 330
311 309 310 312 313 316 312 312 315 312 314 324 326 329 329 328 328 326 323 323 322 320 319 318 317 316 315 314 313 312 311 311 310 311 311 312 312 312 312 312 312 312 312 312 312 312 312 312 313 313 314 315 316 316 317 317 318 318 319 321 322 324 326 328 329 329 330 330 330 330 329 330 330 331 332 332 332 332 333 333 332 332 332 333 332 331 331 331 331 331 331 331 331 331 331 332 332
312 310 312 312 311 312 310 311 314 311 314 323 326 327 328 325 327 326 325 324 322 320 319 318 318 316 315 313 312 311 311 310 310 310 311 311 311 312 312 312 312 311 311 312 312 312 312 312 312 312 313 314 314 315 315 316 316 316 317 318 320 321 323 326 328 329 329 329 330 330 329 330 330 331 332 332 332 331 332 332 331 331 332 333 332 331 331 331 331 332 332 332 332 332 332 333 332
312 311 312 312 311 311 311 312 312 310 314 322 326 326 326 325 326 326 324 324 322 320 320 319 317 315 314 313 312 310 310 310 309 309 310 312 311 311 311 311 311 311 311 311 311 312 312 312 312 313 313 313 313 313 314 314 315 315 316 316 317 319 321 323 327 328 329 329 329 329 329 330 330 330 331 332 331 331 331 331 331 331 332 332 333 332 331 331 331 332 332 332 332 332 332 332 332
311 312 310 311 313 312 313 312 311 311 313 319 324 324 325 326 326 325 323 323 321 320 320 318 316 314 313 312 311 310 309 309 309 309 310 311 311 311 311 310 310 311 311 311 311 311 311 311 312 312 312 312 312 312 312 312 313 314 314 315 316 317 318 321 324 326 329 329 329 329 329 329 330 330 331 331 331 331 330 331 330 331 332 332 333 333 331 331 331 331 332 332 332 332 332 332 332
312 312 309 311 313 312 313 314 313 312 311 315 318 322 327 324 323 323 322 321 320 319 318 316 315 313 312 311 310 309 309 308 308 309 310 311 310 310 310 310 310 310 310 310 310 310 310 311 311 311 312 311 311 311 311 311 312 312 313 314 315 315 316 318 321 324 327 328 328 328 328 328 329 329 330 331 331 330 330 330 331 331 332 332 332 332 331 331 331 331 332 332 332 333 332 332 332
Wind_Speed
1 2 2 1 1 5 6 5 4 3 4 6 5 4 2 2 2 3 3 1 1 3 3 2 2 2 2 4 8 10 11 9 6 3 2 5 8 12 12 14 20 21 19 20 19 22 23 23 24 23 24 23 22 22 22 20 20 19 18 18 18 18 17 19 18 18 21 21 21 20 20 21 19 18 17 18 18 17 16 15 16 17 20 21 21 21 21 20 20 20 20 19 19 18 18 18 17
1 2 2 1 3 6 2 2 5 3 5 6 6 4 3 5 4 4 1 3 3 4 3 3 4 3 4 5 7 5 9 11 7 5 6 9 11 11 13 17 20 20 19 19 19 20 19 21 23 23 24 23 23 22 21 20 20 20 19 19 18 17 16 17 17 17 20 19 20 20 19 21 21 19 17 18 18 17 16 15 16 17 18 20 20 20 20 19 19 19 18 18 18 17 17 17 16
2 2 2 4 5 5 1 3 6 4 5 6 4 4 3 4 4 4 5 4 6 4 2 2 3 4 3 4 5 5 6 7 7 8 8 11 10 11 15 18 19 20 19 19 19 19 18 20 23 23 23 23 23 22 21 21 21 20 19 18 17 16 15 16 17 17 18 18 19 19 19 19 20 20 19 19 18 17 17 14 15 16 17 18 19 18 18 17 17 17 16 16 16 15 16 16 16
3 2 3 5 4 4 4 4 5 5 5 5 2 5 5 4 6 8 6 4 4 2 2 1 3 5 5 5 4 4 7 5 6 7 8 8 8 13 17 19 19 19 18 18 18 18 18 20 23 23 23 23 22 23 22 22 20 19 18 18 18 17 16 17 17 18 18 19 19 18 19 18 19 20 19 19 17 17 17 15 15 15 16 16 17 16 16 16 15 15 14 15 14 14 14 15 16
3 2 3 5 3 2 3 4 3 6 4 3 2 5 5 5 7 6 5 2 2 2 2 0 2 4 5 8 4 2 6 5 6 6 8 8 9 16 18 18 19 18 18 18 18 17 17 21 24 22 22 22 22 22 22 20 19 19 18 17 17 17 17 17 18 18 18 19 18 18 18 18 19 20 19 18 17 17 17 16 15 15 15 16 16 14 15 14 13 14 13 14 13 13 13 13 14
4 4 3 5 2 1 3 4 4 6 3 3 2 6 6 5 5 4 3 2 1 3 1 2 2 5 5 6 6 5 4 3 6 6 8 9 12 17 18 18 18 17 18 17 17 16 17 22 23 22 22 22 22 21 20 19 18 19 18 17 16 16 18 17 18 18 18 18 18 18 18 17 19 19 18 17 17 17 17 17 16 14 14 15 14 12 13 14 13 14 14 14 13 13 13 12 12
5 5 4 4 2 2 6 5 4 4 1 1 2 4 4 3 4 3 1 3 3 5 4 1 2 5 5 3 4 8 4 3 5 7 9 12 15 17 18 18 17 17 17 17 16 16 19 23 23 22 22 22 21 20 19 19 19 18 18 18 16 17 18 17 17 18 17 18 18 18 17 17 18 19 17 16 17 17 17 17 16 14 13 13 11 11 14 14 14 15 15 15 14 14 13 12 11
6 4 2 4 3 4 6 4 4 3 2 1 2 1 2 3 3 4 1 2 2 5 6 4 4 3 5 2 2 7 5 4 5 10 12 14 17 17 17 16 17 17 17 16 15 17 19 23 23 22 22 21 20 20 19 20 19 19 19 19 18 18 18 17 17 17 16 16 17 17 16 17 18 19 17 16 17 18 17 17 16 13 12 11 10 13 15 14 14 15 15 15 15 14 14 12 10
6 4 2 4 4 3 5 4 3 3 1 0 1 2 4 4 4 4 2 2 2 5 7 7 5 2 7 5 5 8 5 6 9 12 13 15 17 16 15 15 17 17 16 16 17 18 18 22 23 21 21 21 20 19 19 20 20 19 19 20 19 20 19 19 19 18 18 17 17 16 16 17 18 19 17 16 16 17 17 16 15 13 11 10 11 14 14 14 14 14 15 15 14 14 13 12 10
5 3 3 3 3 4 5 4 2 2 2 1 2 3 3 4 4 4 4 3 6 7 7 6 5 3 8 7 7 6 5 8 11 13 13 14 15 15 15 14 15 16 16 16 17 19 18 21 22 21 21 21 20 19 19 19 20 20 20 20 20 21 20 20 21 20 19 19 17 17 17 18 18 16 16 16 14 15 16 14 13 11 11 11 13 14 13 13 13 13 14 14 13 13 12 11 10
4 2 3 3 4 4 3 3 3 2 3 1 2 1 3 4 3 4 4 5 7 7 8 6 6 7 8 6 6 6 7 8 11 13 13 13 13 12 13 13 13 15 16 17 18 19 19 20 20 20 20 20 20 19 19 19 20 20 20 21 21 21 20 20 21 21 20 19 17 16 17 16 15 14 13 13 12 13 14 13 12 12 12 12 13 13 12 13 13 12 13 13 12 11 11 11 10
4 3 3 4 4 3 1 2 2 2 3 3 2 4 4 3 3 6 7 7 8 9 8 5 6 8 7 6 5 7 7 7 9 12 13 13 12 11 11 12 13 14 15 16 17 18 20 19 18 18 19 20 20 19 19 19 20 20 20 21 21 21 20 19 20 21 21 19 17 15 15 14 12 12 11 11 12 13 14 13 13 12 13 13 13 11 11 11 12 12 12 12 11 10 10 10 9
4 2 4 3 2 1 1 2 1 2 4 3 4 6 4 2 3 6 8 9 9 9 6 4 8 6 5 6 5 7 7 8 9 11 13 12 12 11 11 11 12 14 15 16 16 17 19 19 18 16 18 18 18 19 19 18 19 20 20 20 20 21 20 19 19 20 21 19 17 15 15 14 12 12 11 10 11 12 13 14 14 12 13 14 12 10 10 10 10 11 12 12 11 10 9 9 9
3 1 4 2 1 3 3 2 3 5 3 5 5 5 1 1 1 4 8 9 7 7 8 6 6 4 5 6 5 6 9 11 11 12 12 10 11 11 11 12 12 13 14 16 16 18 18 18 18 17 17 17 17 17 17 17 19 19 19 19 19 20 20 20 19 19 20 18 17 16 16 15 12 11 10 10 10 10 11 12 13 12 13 14 13 11 9 9 10 10 11 11 10 9 8 8 9
2 1 4 2 2 4 4 2 2 4 3 6 5 4 2 3 2 2 3 5 7 7 7 5 1 0 4 4 4 8 12 15 13 13 12 10 10 10 12 12 13 14 14 15 16 18 19 18 17 17 17 18 17 16 15 16 18 19 19 18 18 20 20 20 19 18 18 17 16 16 17 15 13 10 9 9 10 9 10 10 11 12 12 14 14 11 9 9 9 9 11 11 11 9 8 8 8
2 2 3 3 3 4 4 3 3 3 5 6 5 2 4 6 2 1 3 2 9 6 3 3 2 2 0 2 5 13 17 17 15 14 12 11 10 9 12 12 13 15 14 15 16 16 18 19 18 16 17 17 17 16 15 15 16 18 18 17 17 19 20 19 19 18 17 15 15 17 17 15 12 10 9 9 8 8 10 9 10 11 12 14 14 13 11 9 8 9 10 11 11 10 9 9 8
3 4 4 3 4 4 5 6 4 2 6 7 6 3 3 7 3 3 5 4 9 7 2 4 3 3 3 5 10 19 20 18 16 15 13 12 10 8 11 12 12 13 13 14 15 14 14 17 17 16 16 16 16 16 16 15 15 16 15 15 16 17 18 19 18 16 14 13 15 18 16 14 12 11 11 10 8 8 9 9 9 10 12 15 15 14 12 10 9 9 11 12 12 10 9 9 8
5 4 4 4 4 4 3 3 3 3 5 7 6 5 1 6 7 5 6 7 8 6 5 4 3 4 6 8 16 21 19 18 16 15 14 11 10 8 8 10 11 12 12 12 12 13 13 15 16 15 15 16 15 15 16 16 14 15 14 14 14 13 15 16 15 13 12 13 15 17 15 13 12 11 11 10 9 9 9 9 9 10 13 15 15 14 13 11 9 10 11 12 12 11 10 9 8
6 3 4 4 3 3 4 3 4 4 5 7 6 6 3 5 8 5 5 7 8 8 6 3 4 6 7 11 17 19 17 17 16 14 13 11 10 9 8 8 10 11 12 12 12 14 14 13 13 13 14 16 15 14 15 16 16 16 15 14 14 13 13 14 14 13 13 14 15 16 14 13 12 10 11 10 10 10 9 9 8 10 13 15 16 14 14 12 11 11 12 13 12 10 9 8 8
5 3 5 3 2 3 2 1 4 5 6 7 6 5 2 4 4 3 6 8 7 7 6 5 6 8 9 13 16 17 16 15 15 13 11 10 8 9 9 7 9 9 11 12 12 14 14 13 13 13 14 16 15 13 14 15 16 16 13 13 15 14 14 14 14 13 13 13 13 13 12 12 11 10 11 11 10 10 10 9 8 9 12 14 15 13 13 12 11 12 13 13 12 9 7 7 8
4 5 5 2 3 2 3 1 3 5 6 7 7 4 2 3 1 4 6 9 6 5 6 4 6 10 11 13 15 15 15 14 14 12 10 9 8 8 8 7 7 7 9 10 11 12 13 13 13 13 13 15 14 12 12 13 14 13 12 12 12 13 12 12 12 11 11 11 11 11 10 9 8 9 11 10 9 9 10 10 9 10 11 12 13 11 11 12 12 13 14 13 10 7 6 6 6
4 7 6 1 2 3 5 3 3 5 6 7 6 3 2 1 3 5 6 4 4 5 5 3 4 9 12 13 14 13 13 13 12 12 10 9 9 8 8 7 6 6 8 8 9 10 11 12 12 12 12 13 12 10 10 11 12 11 10 11 11 12 11 10 10 10 10 11 10 8 7 7 7 7 9 9 8 7 8 9 9 11 11 12 11 10 10 11 11 12 13 12 9 7 7 6 6
6 7 7 4 5 3 2 0 2 4 7 7 6 4 3 3 5 4 3 3 5 4 1 3 6 9 12 13 13 12 12 11 11 11 10 10 9 8 8 7 7 7 7 7 8 9 10 11 11 11 11 11 9 8 8 9 10 9 9 10 10 11 11 10 10 9 9 10 9 8 7 7 7 8 9 10 9 7 7 7 7 9 10 10 10 9 10 11 11 11 12 11 9 8 7 6 6
8 5 6 7 5 5 3 2 2 4 7 7 6 4 4 2 5 5 2 4 4 3 1 4 8 10 12 12 12 11 11 10 10 10 9 9 9 8 7 7 6 7 7 7 7 8 9 9 10 10 9 8 8 8 8 8 9 8 8 9 9 10 11 10 9 9 9 10 9 8 8 8 8 9 10 10 8 8 7 6 6 7 8 9 10 9 10 11 11 10 11 10 9 8 7 7 7
11 7 6 6 5 5 4 3 4 5 6 4 4 5 2 1 2 4 3 3 3 1 3 7 9 10 10 11 10 9 9 9 9 9 8 7 8 8 7 6 6 6 6 7 7 7 8 8 9 9 8 8 8 8 8 8 9 9 8 8 8 9 10 9 9 9 9 9 9 9 9 8 9 9 9 9 8 8 7 6 6 6 7 8 9 9 10 12 11 10 10 10 9 8 8 8 7
10 10 6 6 6 5 5 5 5 5 4 2 3 4 3 2 2 3 4 3 1 3 6 8 8 9 8 8 9 8 8 8 8 8 8 6 7 7 7 6 5 5 5 6 6 5 6 7 8 8 8 8 7 8 8 7 8 9 8 8 8 9 9 8 9 9 8 8 8 9 9 8 9 9 9 10 9 8 7 6 6 7 8 8 9 10 10 12 12 11 11 10 9 8 8 8 8
7 11 7 7 6 5 5 5 5 5 5 3 5 4 5 4 4 2 5 2 2 6 8 8 8 8 7 7 8 7 7 7 7 7 8 7 6 6 6 6 5 4 3 5 5 4 5 5 6 6 6 7 7 7 7 7 7 8 9 8 8 9 9 8 8 8 8 9 9 8 8 9 9 10 10 10 9 8 7 7 7 8 9 9 10 10 11 12 12 13 12 11 10 9 9 9 8
5 8 7 8 7 6 7 7 5 5 3 4 6 4 6 5 1 4 6 2 1 6 7 7 7 6 6 6 7 6 6 7 5 4 6 6 5 5 6 4 3 3 2 3 3 3 4 4 4 4 5 6 7 6 7 7 7 8 8 8 8 8 8 7 7 7 8 8 8 8 9 9 9 9 9 9 8 9 8 8 8 8 8 9 10 10 11 11 12 13 12 12 12 10 10 10 9
6 6 7 8 8 9 10 8 5 4 2 4 6 7 8 5 5 6 4 2 1 3 6 7 6 5 5 6 6 5 5 5 4 2 3 4 3 3 4 2 2 3 3 3 4 4 4 3 4 4 4 6 6 7 7 7 7 7 7 7 7 7 6 6 6 7 7 8 8 8 9 9 9 9 9 9 9 9 9 8 8 8 8 8 9 11 12 11 12 13 14 14 13 12 12 14 12
7 7 7 7 8 9 10 8 6 5 3 4 6 8 8 8 9 6 1 0 2 3 5 5 5 4 4 4 4 5 6 5 3 1 1 3 3 3 2 4 3 3 6 5 5 5 4 4 4 4 4 5 6 7 7 6 7 6 6 6 6 6 5 5 6 6 6 7 7 8 9 10 10 9 9 10 10 9 9 9 9 9 8 8 9 11 12 12 12 13 14 14 14 14 14 15 14
7 8 6 5 7 8 11 8 8 8 4 4 8 6 7 10 10 6 2 1 3 4 4 4 4 3 2 3 4 5 6 5 3 2 2 2 3 4 5 6 7 6 6 6 6 5 5 4 4 3 4 5 6 6 6 6 6 6 6 6 6 5 5 5 6 6 6 7 7 8 9 10 11 10 9 10 11 10 9 9 10 10 9 9 9 11 12 13 13 13 14 14 14 14 15 15 14
7 7 7 7 7 8 12 8 8 8 6 6 9 5 8 10 10 8 2 2 3 4 4 3 3 2 2 3 4 5 6 5 4 3 4 4 2 4 6 7 11 9 6 7 7 6 6 5 4 4 4 4 5 6 6 6 6 6 6 6 6 5 6 6 6 7 6 6 6 8 9 10 10 9 9 10 11 11 10 10 10 10 10 10 10 11 12 13 14 14 15 15 15 14 13 14 13
7 7 6 8 8 8 11 8 7 6 7 9 8 3 8 9 8 9 4 2 3 4 3 3 1 1 1 3 4 5 5 3 4 5 5 4 3 5 7 10 12 11 8 8 8 7 6 5 4 4 3 4 5 6 6 7 7 7 6 6 5 5 6 6 7 8 7 6 7 8 9 10 9 9 10 11 11 10 10 10 11 11 11 11 11 11 13 13 14 14 14 15 14 13 13 13 12
7 8 5 8 10 8 10 10 9 8 9 10 5 3 8 8 8 10 7 1 3 3 2 3 1 1 1 3 4 4 3 3 5 7 7 6 6 6 9 12 12 10 9 8 7 6 5 4 3 4 4 4 5 6 7 7 7 7 7 7 6 6 5 4 6 8 7 6 7 9 10 10 9 9 10 11 11 11 10 10 11 12 12 12 12 12 12 12 13 14 14 14 13 13 14 13 12
9 9 6 8 9 8 11 11 10 11 11 9 8 8 9 9 9 10 10 5 1 1 2 2 1 0 1 2 3 3 2 4 7 8 8 8 8 7 10 12 10 8 7 7 6 5 4 3 3 4 4 5 6 7 8 8 8 8 7 7 7 7 6 6 9 11 10 9 10 12 13 12 11 9 11 13 14 13 12 12 13 15 15 14 13 12 12 12 13 14 14 14 14 13 13 13 12
11 11 8 8 9 7 9 10 8 10 9 7 8 9 9 9 9 9 10 8 5 4 5 4 3 2 1 2 2 2 3 6 7 7 8 10 10 9 10 10 8 6 6 7 7 5 5 4 4 3 3 5 6 7 8 7 8 8 8 8 8 8 8 11 14 15 13 11 11 14 14 15 14 13 16 16 15 15 15 16 17 17 17 17 17 16 14 14 15 15 15 15 14 13 13 12 12
11 11 9 10 11 8 9 11 8 8 7 7 8 10 11 10 10 10 9 9 9 8 6 5 4 5 5 4 3 3 5 6 6 8 9 10 10 10 10 9 6 6 7 7 8 7 7 6 5 4 3 3 4 6 7 7 8 8 8 8 8 8 9 11 14 15 12 10 11 14 16 17 17 18 19 17 15 15 16 17 18 17 17 18 19 20 18 17 17 15 15 17 15 13 13 12 12
10 10 9 9 10 9 10 10 8 5 5 7 10 11 11 10 10 9 9 10 11 9 6 5 5 6 6 6 6 6 6 6 7 9 9 10 11 10 10 9 8 8 9 8 8 7 7 5 5 5 5 5 4 5 6 7 8 8 8 8 7 8 10 11 12 13 11 10 11 13 15 18 19 18 18 18 17 16 17 18 18 17 18 17 18 20 20 19 19 16 15 17 17 14 12 13 14
9 8 9 8 8 10 9 8 7 5 4 8 11 10 10 10 10 10 9 10 10 9 10 9 8 9 9 9 9 9 9 9 9 11 11 12 13 12 11 12 11 11 10 9 7 7 6 4 3 3 4 5 5 4 4 5 8 9 8 8 8 9 11 12 13 12 11 11 12 12 14 17 18 17 16 17 16 16 16 18 18 19 19 17 17 18 20 20 19 18 18 18 17 14 11 13 16
9 8 8 8 10 11 7 7 8 6 5 9 12 9 8 8 9 10 9 9 9 10 12 12 11 11 12 12 12 12 13 13 12 13 14 16 16 16 15 14 13 13 13 11 10 9 7 5 3 2 2 4 5 5 3 3 6 7 7 8 9 10 11 11 12 12 10 11 11 11 13 15 15 15 15 16 15 14 14 15 16 19 19 18 17 19 21 21 19 20 21 20 19 16 12 13 17
9 10 8 8 12 10 7 10 10 7 7 12 13 8 5 5 7 8 8 8 9 9 10 11 11 11 12 13 13 13 14 13 13 13 15 17 19 19 19 17 16 14 13 12 11 11 10 9 8 5 3 1 3 3 3 3 4 6 8 9 9 10 11 10 11 12 11 11 10 11 13 14 14 14 14 14 14 13 13 13 15 18 19 18 18 20 23 22 20 21 21 21 21 19 15 13 15
9 10 9 8 12 9 10 15 12 7 8 12 11 7 6 5 5 6 6 7 9 9 9 11 11 11 12 12 12 12 13 12 13 13 14 16 17 18 19 18 16 15 14 12 11 10 9 9 9 8 6 4 2 3 5 5 5 7 8 9 8 9 10 9 10 10 11 12 11 11 13 13 14 14 13 13 14 13 11 12 13 16 17 16 16 18 21 23 22 22 23 23 23 20 17 14 15
7 11 10 7 11 10 13 15 11 6 6 11 12 7 5 7 6 7 6 7 9 9 10 10 10 10 11 11 11 11 11 11 12 13 15 17 17 18 18 18 17 16 15 13 12 11 10 10 8 7 6 5 4 3 4 6 5 6 7 9 9 8 9 9 9 9 10 12 11 11 12 13 12 13 13 12 13 14 13 12 13 14 15 15 15 15 18 23 24 23 23 23 21 19 18 17 16
6 13 14 9 9 11 13 12 10 6 5 9 11 9 4 7 7 8 8 8 9 9 10 10 9 10 11 11 11 11 11 11 11 12 14 16 17 17 17 17 16 15 15 15 14 13 13 12 11 9 7 6 5 4 4 6 7 8 8 9 10 10 10 10 10 10 11 10 10 10 10 11 10 11 12 13 14 15 15 14 13 13 14 14 14 14 16 22 25 24 21 20 20 21 21 21 20
5 13 16 12 10 10 11 10 8 6 5 8 11 10 6 6 8 8 9 9 8 8 9 9 9 9 10 10 11 11 11 11 11 11 13 15 16 17 16 16 16 16 16 16 14 13 13 13 13 12 11 8 7 7 6 7 8 9 10 10 10 10 11 11 10 11 11 10 10 11 10 11 11 11 12 13 14 15 14 14 13 13 14 14 13 13 14 17 23 24 20 19 21 21 21 21 21
6 11 12 10 9 8 8 8 7 6 6 9 12 12 8 6 8 9 9 8 7 7 7 7 8 9 9 9 10 10 10 10 11 12 14 15 15 16 16 16 17 16 16 15 14 14 14 13 14 14 13 11 10 10 9 8 8 8 9 10 11 11 10 11 11 12 13 11 11 11 10 11 11 11 12 13 13 14 14 14 13 14 15 14 14 14 14 14 18 19 18 19 19 19 20 19 18
7 10 10 9 8 7 6 7 6 6 8 9 12 14 9 6 8 8 6 6 7 7 5 6 7 8 9 9 9 10 9 9 9 11 13 14 15 15 16 16 17 17 16 16 16 15 14 14 14 14 14 13 12 12 10 9 9 9 9 10 12 12 11 11 11 13 13 11 11 11 11 11 11 11 12 13 13 14 15 15 14 15 15 15 15 15 15 15 15 15 16 18 18 17 18 17 16
8 10 9 9 8 6 7 6 6 8 9 7 11 12 9 6 6 7 8 9 8 6 5 6 7 9 9 8 9 9 9 9 9 10 11 14 15 16 17 17 17 17 18 18 16 15 14 14 14 15 14 14 13 12 11 10 9 9 9 10 12 12 12 12 13 13 12 11 11 12 12 12 11 11 12 14 15 14 15 15 14 15 16 15 15 15 15 15 14 13 14 15 16 17 17 16 16
10 10 10 10 9 8 9 9 8 8 5 6 10 11 7 2 6 9 11 10 8 7 6 6 7 8 8 8 8 8 8 9 10 10 11 13 15 16 17 17 17 17 18 17 16 15 14 13 14 14 15 15 14 13 12 11 10 10 9 10 11 11 10 11 14 14 15 15 13 13 14 13 11 11 12 15 16 15 15 15 15 17 17 16 15 14 14 14 12 12 14 14 14 15 16 15 15
12 10 11 11 9 9 10 9 9 8 4 6 6 9 6 4 8 10 10 10 9 8 7 7 8 8 8 8 8 8 9 9 10 10 11 12 15 16 16 16 16 16 16 16 15 15 13 13 14 14 14 14 14 13 12 11 11 11 10 10 10 11 11 12 13 14 16 18 16 15 14 13 12 12 13 15 15 16 16 15 15 17 17 16 15 14 13 13 12 12 13 14 15 15 13 13 15
12 11 10 10 8 8 9 8 10 10 7 8 6 6 4 5 7 9 10 10 9 8 7 8 8 7 7 7 8 9 10 10 10 10 11 13 14 14 14 15 15 15 15 15 14 14 14 13 13 14 14 14 15 15 14 12 11 11 10 11 11 11 12 13 13 14 15 16 16 16 15 13 13 13 14 14 15 16 16 15 15 16 16 15 14 15 15 14 12 11 11 13 15 15 14 14 15
11 11 10 10 9 7 5 2 3 6 7 7 5 2 3 4 6 8 9 9 8 8 7 8 8 7 7 7 8 9 9 9 10 9 10 13 14 14 13 14 14 14 14 15 15 15 14 14 14 15 15 14 15 15 14 12 11 11 10 11 13 13 13 14 14 14 14 14 14 14 14 13 13 13 14 14 14 15 14 14 15 16 17 15 15 15 15 14 13 13 13 14 17 17 17 17 18
8 10 10 7 7 6 5 2 3 2 7 5 4 4 5 5 5 6 7 8 8 7 7 8 8 8 7 8 8 8 9 9 9 9 10 12 14 14 14 14 15 15 15 15 16 15 15 15 15 15 15 15 15 15 14 13 13 12 12 12 14 14 14 15 15 15 15 16 15 14 13 13 14 14 13 13 14 14 13 13 15 17 17 16 15 16 16 14 14 14 14 15 17 18 18 19 19
7 10 10 6 2 3 5 5 4 6 8 4 5 8 8 7 5 6 9 8 8 7 8 8 7 8 8 9 9 9 9 9 9 10 11 13 14 15 15 15 16 16 16 16 16 16 15 15 15 16 16 16 16 15 15 14 14 14 14 14 16 16 16 16 16 15 15 16 17 16 14 14 14 13 12 12 12 13 13 14 16 18 18 17 17 16 15 15 15 14 13 13 14 16 16 17 17
7 9 10 8 5 7 8 6 7 10 8 5 8 10 9 8 7 9 11 10 9 8 7 7 7 8 7 8 9 9 9 8 9 9 10 13 15 16 16 16 17 17 16 16 15 16 16 15 15 16 16 17 17 16 16 16 16 15 15 17 18 17 17 17 16 15 15 16 16 16 14 12 13 13 12 11 12 13 14 15 17 18 18 18 18 17 16 16 16 14 13 14 14 15 16 15 15
8 8 9 8 6 7 8 7 7 9 8 6 8 9 7 4 6 12 13 11 10 10 8 7 8 8 8 8 8 8 8 8 9 8 10 13 15 16 17 16 16 17 16 16 15 16 16 16 17 18 18 19 18 18 18 17 17 16 17 18 19 19 18 18 17 16 16 16 16 15 14 12 13 13 13 12 12 14 15 15 17 19 20 19 19 18 18 17 16 15 15 15 15 16 16 15 15
9 8 10 9 5 5 7 6 5 6 8 8 7 8 5 3 3 11 14 11 10 10 8 7 8 9 9 9 8 8 8 9 9 9 10 13 15 16 16 16 16 16 16 16 16 16 17 17 18 19 19 20 20 19 19 18 18 17 18 18 18 19 19 18 18 17 16 17 17 16 14 13 14 14 13 13 14 15 16 16 18 20 20 20 20 19 18 17 16 16 15 15 16 16 16 15 14
10 10 10 11 7 6 8 6 4 5 6 6 7 6 5 5 2 7 12 10 10 10 9 9 9 9 9 9 9 9 9 9 9 9 11 13 14 15 15 15 16 16 17 17 17 17 17 18 19 19 20 21 21 20 19 19 18 18 18 18 17 18 19 19 18 17 17 17 17 17 15 15 15 15 14 14 15 16 17 17 18 20 21 20 20 18 18 17 16 15 15 15 15 16 16 16 15
Wind_Direction
129 150 144 149 230 252 235 232 244 191 238 254 246 256 146 124 331 241 199 162 186 54 7 20 60 324 326 40 80 76 39 18 11 344 44 94 126 144 156 148 146 147 148 151 150 157 161 165 168 169 167 163 158 153 149 145 142 141 142 142 141 139 136 138 137 135 134 130 127 129 128 126 126 122 117 119 121 121 120 114 109 109 110 111 111 111 110 109 108 107 106 105 105 104 104 105 105
175 165 141 189 226 245 227 216 259 207 223 250 237 235 98 109 182 210 35 45 64 58 54 78 96 50 14 73 82 84 58 37 34 53 84 122 131 146 157 149 148 147 146 148 149 152 155 163 168 170 168 164 160 154 147 142 140 141 140 140 138 134 132 135 133 133 134 130 128 128 127 127 128 127 122 122 124 123 121 117 113 112 112 111 112 112 110 109 108 107 106 106 107 108 109 108 108
172 178 194 209 214 242 234 212 252 236 231 257 231 170 128 160 153 84 48 60 84 77 76 100 104 34 310 143 53 23 75 56 67 82 109 135 137 149 153 147 146 144 144 147 150 152 152 162 168 169 167 164 160 155 149 143 142 141 139 139 136 132 133 134 132 133 133 132 130 129 128 128 130 131 128 127 127 125 125 121 117 115 114 112 111 109 108 108 107 106 107 107 108 109 109 107 109
156 184 222 225 210 220 223 218 245 253 243 262 256 121 153 171 107 73 57 67 104 107 45 148 121 22 347 87 49 44 86 75 82 92 124 133 130 146 150 146 145 144 145 149 153 151 153 164 167 166 164 162 158 155 151 148 146 141 138 138 136 135 136 135 134 134 135 134 132 131 131 130 133 136 133 132 131 129 128 123 118 117 115 113 111 108 107 108 108 108 109 108 109 111 108 109 111
165 186 227 251 241 213 231 236 243 247 251 283 313 105 137 117 88 63 50 54 182 180 53 205 114 73 52 54 3 44 91 102 106 107 125 120 127 146 152 149 148 147 148 151 153 150 154 163 164 163 161 157 155 153 152 150 145 139 136 136 136 138 138 136 136 136 136 136 135 132 131 129 134 139 136 137 137 134 132 128 126 122 120 119 116 115 112 107 107 109 108 109 111 112 111 114 116
178 179 199 247 267 312 248 233 224 228 252 307 329 101 125 88 60 27 44 90 225 214 158 343 60 111 100 58 29 50 83 117 114 122 129 131 141 149 152 151 151 148 148 150 152 149 153 161 162 161 157 155 154 152 151 147 140 138 137 137 138 139 138 136 137 137 137 138 137 135 134 135 141 145 141 141 142 142 140 136 133 126 122 123 120 121 120 111 106 110 110 109 109 111 113 115 117
193 187 182 215 190 228 243 235 236 224 135 333 316 88 114 55 27 348 20 139 159 193 204 320 131 125 106 113 81 67 72 74 104 130 136 141 145 149 153 154 151 147 148 149 151 149 155 162 161 159 157 155 154 151 148 144 140 140 142 141 140 140 139 137 137 136 136 136 134 134 136 140 150 151 143 143 145 147 146 140 137 134 131 126 123 126 125 115 110 114 113 109 105 107 110 114 117
205 217 195 228 201 204 243 240 246 245 86 45 290 3 337 344 335 306 311 170 153 172 189 169 180 150 104 168 115 85 84 81 107 123 135 142 144 150 154 155 150 148 150 148 148 150 158 161 159 159 157 156 155 153 150 148 145 144 145 144 143 142 141 141 138 138 138 136 132 132 131 133 147 152 147 145 146 150 150 144 144 143 139 133 135 133 122 112 112 115 114 108 105 105 106 110 113
200 224 213 239 232 207 237 235 235 250 215 138 247 271 297 305 294 275 244 178 157 153 157 152 194 196 124 137 103 104 92 99 122 126 138 141 143 150 153 157 152 151 152 148 146 147 154 159 160 160 160 160 159 156 154 152 149 147 148 147 146 146 145 145 143 143 141 137 137 138 137 136 145 153 154 154 152 155 155 151 151 146 140 141 142 133 118 109 110 112 113 109 105 104 102 104 107
195 223 233 233 243 223 223 222 212 207 180 180 253 274 310 302 275 244 232 170 157 147 132 149 199 168 135 129 106 114 102 115 133 132 139 140 147 154 154 158 152 153 152 146 143 142 150 159 161 161 163 164 161 159 156 155 152 150 150 150 150 151 150 148 147 146 143 141 146 148 148 148 150 152 153 158 158 159 161 155 152 147 143 147 144 131 116 108 106 108 112 109 105 103 101 102 105
202 189 243 238 229 230 225 210 198 155 130 174 192 66 2 317 266 211 210 155 153 143 135 167 169 139 134 123 105 110 114 137 143 138 143 145 152 155 154 157 154 155 151 145 142 143 151 158 161 162 165 164 162 160 156 156 155 153 152 152 153 154 154 151 150 149 146 145 152 154 151 150 150 149 150 157 158 159 162 157 152 151 150 151 146 132 117 109 105 109 113 111 108 104 103 103 106
227 167 213 238 231 230 248 239 202 146 143 162 114 53 4 301 208 182 176 152 154 143 144 181 148 140 142 124 113 120 133 148 140 141 148 149 151 152 154 157 155 153 148 145 144 145 149 155 161 164 166 165 163 159 157 158 157 157 156 155 155 156 157 154 153 152 149 150 155 155 153 151 147 149 149 153 160 163 167 163 156 154 155 153 148 138 124 113 109 113 117 117 113 108 106 107 107
239 186 220 233 247 244 246 243 167 168 156 110 47 16 342 227 179 173 162 146 152 144 133 150 145 149 133 110 116 138 153 148 138 147 151 152 152 150 155 156 152 149 144 144 145 146 148 155 160 163 168 167 163 160 160 161 160 161 159 159 159 158 160 157 156 155 154 155 158 156 157 156 149 149 147 146 152 160 165 164 159 158 157 154 152 147 133 120 116 119 123 123 120 113 109 108 106
234 221 249 229 217 242 237 226 163 183 141 74 30 11 349 172 130 167 155 142 132 117 106 115 146 154 132 129 142 158 160 150 149 153 151 151 151 154 156 152 148 146 143 144 148 151 151 155 158 161 167 165 163 163 162 164 163 162 161 161 161 163 163 160 159 157 159 162 161 158 160 158 150 148 149 147 147 153 159 158 160 161 160 157 157 155 144 129 123 126 130 130 127 119 111 107 107
232 207 252 244 206 212 211 207 156 180 97 61 32 23 121 82 39 175 141 127 104 100 117 119 124 223 153 157 156 157 153 152 154 150 147 145 149 158 152 149 149 148 148 147 152 158 158 156 157 160 163 164 163 161 163 166 167 164 163 161 162 165 166 164 163 161 164 167 164 161 161 155 149 152 153 153 154 156 156 157 163 163 163 162 160 159 154 138 130 134 137 137 133 125 115 110 108
226 212 233 237 216 199 184 170 164 171 82 62 45 19 156 100 35 107 53 99 118 121 152 110 30 326 122 50 113 142 145 148 150 145 142 139 145 159 149 147 152 152 151 152 156 162 163 159 158 162 164 165 163 160 162 166 169 167 164 163 163 165 167 167 167 166 168 169 166 165 163 154 150 154 153 154 158 157 153 161 170 166 166 165 161 159 156 146 139 142 146 145 139 131 120 112 109
199 227 224 218 213 189 170 168 162 131 77 57 46 10 169 119 86 90 93 125 126 127 105 74 41 351 36 62 118 134 139 144 146 145 144 143 149 166 157 151 154 156 155 157 160 161 166 164 160 165 167 167 164 163 162 163 169 166 163 166 164 165 168 170 169 167 167 168 169 170 168 162 160 158 155 156 159 163 163 169 174 169 167 167 163 157 154 150 147 151 154 150 144 137 122 112 111
195 216 215 212 207 168 137 131 78 54 59 38 38 22 332 139 128 132 130 115 119 128 111 92 77 65 68 96 124 131 138 144 147 149 149 154 155 164 172 165 163 159 160 163 162 163 170 170 166 168 170 169 168 165 163 163 165 162 162 164 163 164 164 167 167 161 162 167 171 175 175 173 171 166 162 159 157 163 170 169 168 170 169 168 164 157 153 150 154 161 159 154 151 139 122 116 117
212 208 216 221 190 107 70 57 46 26 23 15 30 25 346 138 131 163 165 130 144 147 132 148 129 108 104 120 130 134 142 146 151 155 153 161 160 160 173 179 176 168 163 163 165 169 172 174 175 174 173 173 171 168 165 163 162 163 165 164 165 167 162 165 168 166 170 172 175 180 182 177 173 173 168 162 159 159 169 170 164 169 171 171 166 159 154 153 159 163 162 160 154 138 127 131 130
213 209 222 205 126 101 97 21 25 18 359 355 9 13 16 123 124 210 171 146 164 157 145 175 159 140 132 136 140 140 145 150 156 160 160 162 156 158 165 174 183 176 166 163 169 175 173 173 177 178 177 175 172 171 167 164 165 165 166 166 168 171 171 174 176 176 178 179 181 187 190 178 172 180 171 165 166 160 167 170 163 165 170 173 166 158 155 156 161 164 165 162 156 147 146 149 139
191 211 235 104 100 178 141 107 17 12 343 343 348 345 114 119 251 240 176 159 165 156 156 171 157 150 144 146 149 146 150 156 160 166 168 160 153 156 158 165 176 172 165 166 172 176 177 175 178 178 178 178 175 172 169 165 164 165 169 170 170 173 178 182 181 182 183 184 190 199 199 180 176 186 173 168 172 164 164 165 162 158 160 167 164 163 164 161 163 165 167 167 171 173 164 156 144
189 214 249 75 163 193 115 97 16 355 323 328 327 339 58 154 211 218 214 183 113 114 150 157 141 148 149 151 152 151 156 161 165 172 172 158 160 162 156 162 166 167 170 175 177 177 179 181 183 181 180 182 177 173 169 164 164 167 174 175 176 178 180 184 183 184 188 188 195 205 201 183 184 190 177 178 181 175 172 170 168 160 155 162 169 178 179 175 175 171 172 179 185 182 167 159 151
217 210 230 230 221 216 118 179 342 336 306 318 329 350 336 230 155 172 238 11 41 52 88 122 124 139 146 151 154 156 160 166 172 177 173 159 166 170 160 163 165 172 180 183 179 176 180 183 186 184 183 182 173 171 169 166 171 175 178 178 183 185 181 185 188 188 191 191 194 198 197 193 194 195 190 187 185 183 185 184 178 169 162 163 174 188 189 190 192 182 182 188 186 178 169 163 156
235 219 200 215 220 226 240 267 292 298 293 312 326 315 283 202 125 159 166 34 3 336 335 117 122 134 143 149 155 159 160 166 178 179 170 160 168 170 164 169 170 177 187 186 178 176 181 182 186 185 180 172 166 170 173 176 177 179 182 181 189 191 186 190 195 193 192 195 198 198 198 201 205 205 200 193 190 190 193 195 189 181 175 169 176 190 197 200 201 195 192 190 184 177 168 163 163
229 230 192 201 204 214 229 250 262 277 282 301 298 266 235 84 107 160 130 51 353 307 158 131 127 136 141 147 151 159 160 164 176 173 167 162 162 165 171 178 176 181 187 186 181 177 179 179 185 183 171 167 169 171 180 189 182 182 190 189 195 194 191 196 198 198 197 200 203 203 205 206 209 209 199 192 194 194 198 204 203 197 188 179 180 189 199 201 204 205 198 192 188 180 170 169 170
210 222 206 201 203 204 218 239 248 258 269 274 245 225 147 131 206 150 99 56 44 143 147 133 135 140 138 145 149 156 159 165 171 167 170 160 151 167 179 178 179 189 183 179 181 174 172 174 180 180 172 169 170 174 184 196 187 188 197 195 198 196 195 199 199 202 204 207 209 207 209 208 209 212 200 191 193 197 203 210 212 208 199 194 190 191 197 200 205 206 197 192 189 183 177 176 175
186 214 217 216 218 209 223 237 240 252 253 233 228 196 129 171 217 129 94 77 135 149 143 135 141 141 140 146 145 149 154 162 168 169 173 162 157 180 187 183 184 185 169 176 175 156 163 173 177 175 173 169 170 180 188 195 194 196 202 201 203 202 200 198 201 208 212 216 215 209 211 209 209 216 208 196 196 201 207 213 218 216 209 206 203 199 198 199 204 204 197 191 190 188 182 178 178
160 202 208 213 222 211 221 223 219 247 226 193 215 185 153 179 215 43 70 64 193 161 148 143 147 142 145 148 138 140 147 147 154 172 179 176 172 183 192 186 171 159 152 177 155 135 159 172 181 173 170 171 171 181 188 195 200 202 207 208 210 210 206 203 207 213 219 223 220 215 215 213 210 214 211 203 204 207 208 213 220 224 218 212 209 206 204 201 201 203 198 193 190 190 184 178 176
172 198 200 183 199 206 206 207 198 228 189 151 205 187 162 142 58 30 38 25 260 184 161 149 151 149 149 149 135 131 130 126 133 162 182 185 162 157 180 139 117 136 112 124 129 134 156 157 176 183 178 178 176 185 194 201 204 207 212 216 220 221 217 216 218 218 222 227 225 221 220 220 218 214 211 208 211 212 211 213 220 226 223 217 212 208 208 204 201 201 200 198 192 190 188 182 176
187 207 223 172 188 197 181 187 188 208 177 124 211 196 142 97 55 32 15 242 236 211 182 158 151 155 150 138 121 112 107 99 93 81 131 141 107 99 114 78 71 75 82 108 136 142 151 149 164 186 194 190 189 195 200 206 209 213 219 224 228 230 234 236 234 230 229 232 232 230 229 228 228 224 215 209 214 217 215 215 218 224 224 221 215 211 211 209 205 203 203 203 197 194 193 188 182
185 191 228 200 195 173 155 176 189 192 166 157 227 217 115 82 52 33 19 210 227 221 188 167 156 143 131 110 99 97 95 81 56 9 13 62 78 84 73 66 73 64 70 101 126 139 153 156 161 183 200 200 202 203 205 212 216 219 225 231 232 235 243 248 248 244 240 242 244 244 239 234 231 230 224 215 215 217 219 221 221 223 223 221 219 215 214 213 210 206 204 203 199 197 194 191 187
190 183 202 204 201 154 143 170 198 196 163 178 232 218 106 76 48 35 22 209 222 228 191 168 167 134 106 99 93 89 91 88 75 36 12 11 32 80 71 64 77 81 87 104 121 141 157 163 169 177 189 201 210 213 216 222 225 227 229 233 234 233 238 246 252 251 251 253 256 256 250 243 238 233 231 229 223 218 219 224 224 225 223 220 222 220 217 215 212 208 206 203 200 196 191 188 187
193 206 193 189 200 160 145 164 193 202 166 178 231 229 98 75 45 38 32 213 222 229 181 153 182 145 80 88 90 85 88 94 79 55 36 19 14 57 67 71 84 101 111 116 130 143 151 153 153 159 178 205 220 228 232 234 235 235 236 237 235 231 234 244 253 254 253 253 259 266 265 257 248 241 237 236 234 227 223 227 227 227 226 224 225 223 222 219 211 206 206 204 200 195 193 190 186
184 211 194 183 195 170 152 156 167 188 188 180 181 90 84 70 43 38 34 21 229 235 160 141 177 175 77 80 88 83 82 76 59 51 44 37 33 43 62 80 101 118 118 120 128 134 142 140 145 161 174 198 219 231 236 239 243 243 240 237 237 237 237 244 257 260 253 245 246 252 261 264 259 253 247 240 237 234 229 230 231 230 229 226 227 226 224 220 210 204 203 201 197 196 199 195 188
180 191 184 180 190 181 163 152 158 184 194 174 137 106 89 73 53 42 35 33 354 306 76 100 109 157 186 106 96 88 74 65 59 51 43 42 45 53 68 86 108 117 109 113 112 114 129 134 161 176 182 198 213 223 230 234 237 240 239 233 231 231 229 232 244 247 239 234 236 241 245 249 253 254 251 246 240 239 235 233 234 234 233 229 227 226 224 219 210 204 200 195 191 198 205 197 187
176 180 181 175 180 180 151 135 147 172 166 147 134 115 93 74 62 53 43 41 50 59 60 54 44 30 27 70 96 113 88 69 64 52 43 43 49 63 81 90 98 96 97 106 105 112 122 129 155 174 196 209 214 222 231 238 239 240 238 235 230 225 223 229 238 239 232 227 233 240 236 230 233 235 241 246 243 243 240 237 238 238 237 233 226 223 221 216 210 202 194 191 188 194 204 195 184
173 181 185 177 179 167 137 131 134 141 123 109 118 107 90 76 65 58 51 52 53 57 60 55 47 39 41 46 45 85 94 79 63 49 43 44 53 68 86 95 90 76 77 86 96 111 117 124 140 150 174 202 218 228 234 240 246 250 248 245 238 232 232 235 243 245 238 226 229 240 237 230 229 227 233 240 240 241 239 237 238 236 237 236 228 224 222 219 217 208 197 197 193 191 198 192 182
178 186 182 178 181 157 139 141 136 139 124 119 121 104 87 78 73 65 58 61 57 53 57 57 59 56 55 51 41 50 73 74 55 46 46 50 58 67 79 89 85 73 70 74 87 101 110 119 136 151 166 178 198 227 240 241 244 249 250 248 241 235 238 240 248 253 247 237 238 242 240 237 236 234 235 238 238 240 238 237 236 233 236 238 232 228 227 224 219 212 205 203 196 191 194 190 184
187 190 184 186 169 134 128 136 144 164 153 138 133 110 90 83 78 71 65 68 68 62 56 52 55 60 57 52 46 45 53 56 50 47 50 56 62 67 74 79 78 75 73 75 84 94 102 112 134 154 162 172 180 191 220 234 238 243 243 240 238 236 240 243 247 253 252 240 235 238 240 242 243 242 239 237 238 239 237 237 236 237 239 236 228 223 223 223 219 216 213 206 198 192 194 195 192
198 193 188 188 163 149 153 143 143 158 156 148 138 116 104 102 94 82 72 77 78 70 61 54 53 59 59 54 48 47 48 47 44 40 39 46 52 54 54 59 63 66 65 62 62 69 71 66 82 125 151 177 186 179 185 234 239 239 237 234 239 242 245 249 251 258 259 241 229 230 236 241 243 245 243 239 239 237 235 235 234 236 237 234 228 222 220 220 219 216 211 205 198 190 190 199 201
199 200 200 183 171 175 158 137 138 138 146 153 145 130 126 123 116 106 91 85 77 69 69 62 54 54 57 56 49 48 50 47 43 38 35 37 42 43 41 42 49 53 54 52 49 50 52 48 43 37 34 221 221 220 253 289 250 234 237 234 237 243 247 250 254 261 262 251 241 234 234 235 238 245 249 247 245 239 234 232 233 234 235 233 229 226 225 222 216 213 209 206 202 194 190 198 204
190 203 218 184 171 166 131 137 149 149 161 174 178 177 152 135 127 125 118 95 76 64 66 62 51 48 51 52 48 47 48 48 45 42 39 37 37 40 40 40 41 42 41 43 45 44 43 43 37 28 21 8 338 278 285 298 260 237 243 240 238 244 248 247 248 255 258 259 257 247 241 238 237 243 247 245 243 238 231 228 230 232 232 230 225 226 229 225 216 210 208 205 205 205 201 202 207
187 191 208 191 170 158 145 158 175 180 179 184 203 223 164 154 154 143 140 113 89 71 65 60 51 50 53 52 49 47 46 44 43 42 41 38 36 36 37 36 35 35 34 36 40 38 35 33 28 22 15 8 5 329 306 311 281 253 249 247 248 253 257 258 254 253 257 261 262 254 248 245 242 241 240 238 238 237 232 224 223 228 230 228 225 224 226 224 215 206 205 202 204 211 208 206 209
186 171 187 195 180 171 167 180 197 195 154 169 205 238 203 168 167 158 156 131 101 77 65 61 54 53 55 53 50 48 46 44 42 41 40 37 34 33 32 32 31 31 31 32 33 30 29 28 25 21 15 6 356 335 314 307 293 280 270 261 258 257 261 267 267 261 255 252 254 250 245 245 243 238 235 233 238 240 234 224 219 224 227 224 221 216 217 220 215 207 205 203 204 209 208 207 208
165 158 185 196 193 193 187 195 207 186 165 182 199 221 218 169 159 170 172 152 114 86 69 62 57 53 52 51 50 49 48 46 45 43 40 36 33 32 32 31 29 29 29 29 28 26 26 24 24 24 21 14 357 342 328 309 298 293 288 280 271 263 261 265 266 261 251 243 247 247 241 236 233 233 233 233 241 243 233 224 217 215 217 217 212 207 207 214 215 208 202 198 201 208 212 212 209
134 153 186 190 199 212 205 214 211 178 204 212 186 196 219 174 156 178 185 169 131 102 78 65 61 56 52 49 48 47 46 47 46 44 42 39 36 35 34 33 31 30 27 26 26 26 26 24 22 22 19 13 1 350 337 321 313 302 293 286 279 273 267 263 262 259 252 244 246 251 247 241 237 238 238 233 237 239 232 226 218 208 209 211 210 202 195 198 204 203 199 199 203 209 214 215 214
140 164 184 180 196 213 212 228 227 195 216 215 177 188 221 198 167 172 159 129 113 116 99 75 66 57 52 49 46 44 43 44 42 41 40 39 38 35 33 33 31 29 27 26 24 22 24 24 22 21 18 10 2 354 342 330 323 311 299 290 283 281 279 273 261 257 255 249 248 252 251 249 246 246 243 235 231 234 232 226 217 208 205 206 208 203 193 189 191 194 199 202 204 209 215 218 221
175 186 186 180 188 199 206 212 223 221 216 191 162 179 219 220 171 144 113 93 92 108 103 81 67 58 52 47 45 41 40 42 38 36 34 31 31 29 29 29 27 25 25 23 20 18 18 20 19 19 17 11 2 354 344 337 332 322 308 297 291 289 288 280 267 261 261 258 251 245 243 243 240 237 237 233 229 231 231 224 217 210 205 203 206 205 199 195 193 193 196 198 203 212 217 219 221
199 197 188 188 182 186 204 200 205 218 197 148 153 176 205 178 104 116 116 107 99 96 91 80 69 61 54 47 45 42 38 38 35 32 30 27 25 23 22 22 21 20 20 17 14 13 13 14 14 14 13 11 5 357 350 344 339 335 322 303 296 294 291 285 278 272 268 265 258 245 240 242 239 232 231 230 227 230 228 223 217 208 203 202 203 206 205 204 204 199 194 196 208 217 218 220 223
202 199 191 194 185 183 199 197 199 204 150 117 156 182 182 122 105 119 123 116 110 103 95 85 77 69 60 51 46 44 39 36 35 32 29 26 23 21 19 17 16 14 13 12 9 8 8 8 9 8 7 6 4 360 357 353 347 341 331 314 302 296 294 289 285 280 272 268 265 257 250 248 246 240 237 232 227 227 225 220 216 207 202 200 201 202 203 207 209 203 196 198 211 222 223 225 228
198 202 202 204 200 191 197 199 202 198 152 121 158 192 179 143 130 131 132 126 117 109 100 87 79 71 64 56 47 43 39 35 36 33 30 27 23 22 19 15 12 8 6 6 4 3 3 2 2 1 360 359 358 357 357 357 353 344 334 326 316 306 299 293 285 280 275 271 269 264 258 252 247 244 243 237 226 222 220 219 216 207 201 198 198 200 202 203 202 200 199 202 212 221 226 230 231
193 202 207 211 215 198 181 216 217 181 155 132 148 155 71 97 122 130 139 134 125 118 101 83 70 64 62 57 48 43 39 35 34 31 29 28 25 24 22 18 13 8 5 4 2 1 359 357 356 356 356 355 354 353 352 350 349 346 340 334 326 316 307 297 288 281 277 274 270 264 258 254 248 244 245 242 230 221 216 217 216 207 201 200 196 197 198 198 199 199 199 201 207 213 221 227 227
177 199 203 201 224 201 152 116 50 141 175 156 147 132 103 120 139 148 154 135 126 121 97 82 72 69 67 59 52 45 41 37 33 31 29 26 26 27 25 21 17 13 10 7 5 3 -0 357 355 354 354 354 352 350 348 345 344 345 345 339 331 324 315 307 298 291 284 278 272 265 259 256 251 245 243 241 237 228 217 215 214 206 202 202 199 198 199 198 200 202 201 203 207 210 216 223 222
175 198 191 165 196 202 179 174 156 189 198 174 173 167 156 173 164 154 167 146 128 122 105 98 87 78 71 62 55 47 43 39 33 32 29 28 29 29 27 24 20 17 14 12 10 7 5 2 358 355 354 354 353 350 346 345 344 344 345 341 335 329 322 313 305 298 291 283 276 269 260 254 249 244 238 236 237 232 222 217 214 208 206 206 203 201 200 197 197 202 206 210 214 214 216 221 220
213 199 178 172 191 191 197 196 182 196 200 172 177 178 179 195 168 154 169 161 141 134 121 110 93 80 74 63 55 47 41 38 35 32 30 31 32 30 29 26 24 22 19 17 15 13 11 9 5 3 0 358 357 353 350 348 347 345 343 339 336 332 327 318 307 300 293 287 282 275 266 255 249 243 237 235 235 231 225 219 215 211 209 207 204 201 200 198 197 201 209 214 218 219 219 220 219
229 211 185 198 214 192 192 194 193 204 200 175 176 184 188 180 148 158 167 160 149 141 128 113 91 80 74 64 57 49 42 38 36 34 33 33 34 33 31 28 26 25 22 20 18 17 16 14 12 10 7 4 1 358 354 351 348 345 341 338 335 332 329 322 313 304 295 289 285 280 271 260 252 246 240 237 234 230 225 219 214 211 209 205 202 202 201 200 200 203 209 216 218 219 219 219 219
201 206 191 195 207 198 191 194 214 219 202 180 180 187 166 85 117 161 158 151 150 143 129 114 96 85 76 65 59 52 45 42 39 36 36 35 35 34 31 27 24 23 21 20 17 16 15 14 14 12 9 6 3 1 357 351 347 343 339 337 334 333 332 328 321 312 301 293 288 282 274 264 256 249 241 236 232 229 225 219 212 209 208 205 202 201 199 199 203 205 209 216 215 215 216 216 217
192 199 196 193 193 190 185 185 206 224 214 193 191 185 126 59 39 142 140 141 140 131 121 112 100 91 81 70 63 55 48 46 42 39 39 37 34 32 29 26 25 23 21 18 16 15 13 11 13 13 11 7 3 1 358 353 348 343 339 336 334 335 336 334 329 320 310 301 293 285 278 268 257 249 242 233 228 228 225 218 211 208 207 206 204 201 198 200 203 202 204 208 210 211 213 212 214